AUI3SP UKOO-UKBB

Flight info

Callsign AUI3SP
Flight time 0h 49m
Altitude 26000
Route VAKOM L83 VAPEL/K0837F320 T219 TEPLO/K0843F330 T219 KONIP
Aircraft B738/M-SDE2E3FGHIRWXY/LB1

Departure

Time 2026-04-20 14:46
Airport Odesa International Airport (UKOO)

Arrival

Time 2026-04-20 15:36
Airport Boryspil International Airport (UKBB)
Time Latitude Longitude Altitude Speed Heading
2026-04-20 13:28 46.44151 30.67387 172 ft 0 kts 79°
2026-04-20 14:40 46.44150 30.67380 172 ft 2 kts 79°
2026-04-20 14:40 46.44148 30.67356 175 ft 2 kts 86°
2026-04-20 14:40 46.44148 30.67332 171 ft 2 kts 97°
2026-04-20 14:41 46.44152 30.67309 172 ft 2 kts 117°
2026-04-20 14:41 46.44163 30.67291 172 ft 2 kts 150°
2026-04-20 14:41 46.44177 30.67283 171 ft 1 kts 168°
2026-04-20 14:41 46.44181 30.67282 171 ft 0 kts 169°
2026-04-20 14:43 46.44180 30.67282 171 ft 0 kts 169°
2026-04-20 14:43 46.44168 30.67285 172 ft 4 kts 170°
2026-04-20 14:43 46.44124 30.67297 172 ft 9 kts 169°
2026-04-20 14:43 46.44048 30.67317 172 ft 13 kts 171°
2026-04-20 14:44 46.43994 30.67277 172 ft 10 kts 244°
2026-04-20 14:44 46.43971 30.67165 172 ft 14 kts 255°
2026-04-20 14:44 46.43940 30.67011 172 ft 18 kts 253°
2026-04-20 14:44 46.43900 30.66827 172 ft 12 kts 242°
2026-04-20 14:45 46.43825 30.66817 171 ft 10 kts 163°
2026-04-20 14:45 46.43807 30.66825 171 ft 4 kts 162°
2026-04-20 14:45 46.43708 30.66870 172 ft 46 kts 163°
2026-04-20 14:45 46.43100 30.67130 172 ft 133 kts 163°
2026-04-20 14:46 46.41999 30.67607 418 ft 185 kts 165°
2026-04-20 14:46 46.40731 30.68150 1358 ft 195 kts 168°
2026-04-20 14:46 46.39386 30.68718 2157 ft 216 kts 169°
2026-04-20 14:46 46.37858 30.69371 2756 ft 236 kts 168°
2026-04-20 14:47 46.36255 30.70063 3636 ft 246 kts 168°
2026-04-20 14:47 46.34582 30.70785 4577 ft 254 kts 168°
2026-04-20 14:47 46.32872 30.71529 5486 ft 260 kts 168°
2026-04-20 14:48 46.29366 30.71664 6839 ft 254 kts 209°
2026-04-20 14:48 46.27987 30.70102 7038 ft 252 kts 232°
2026-04-20 14:48 46.27146 30.67909 7061 ft 252 kts 249°
2026-04-20 14:48 46.26607 30.65485 7074 ft 254 kts 253°
2026-04-20 14:49 46.26139 30.63024 7141 ft 257 kts 259°
2026-04-20 14:49 46.26232 30.60461 7881 ft 262 kts 283°
2026-04-20 14:49 46.27038 30.58102 8967 ft 266 kts 304°
2026-04-20 14:49 46.28464 30.56345 9930 ft 277 kts 328°
2026-04-20 14:50 46.30304 30.55320 10566 ft 295 kts 337°
2026-04-20 14:50 46.32356 30.54416 10775 ft 323 kts 339°
2026-04-20 14:50 46.34607 30.53480 11011 ft 347 kts 340°
2026-04-20 14:50 46.36961 30.52506 11635 ft 355 kts 340°
2026-04-20 14:51 46.39344 30.51506 12458 ft 359 kts 340°
2026-04-20 14:51 46.41750 30.50482 13317 ft 361 kts 340°
2026-04-20 14:51 46.44176 30.49434 14068 ft 365 kts 339°
2026-04-20 14:51 46.46629 30.48367 14777 ft 369 kts 339°
2026-04-20 14:52 46.49106 30.47284 15512 ft 372 kts 339°
2026-04-20 14:52 46.51591 30.46197 16231 ft 375 kts 339°
2026-04-20 14:52 46.54105 30.45095 16923 ft 379 kts 339°
2026-04-20 14:52 46.56679 30.44139 17600 ft 388 kts 349°
2026-04-20 14:53 46.59370 30.44279 18271 ft 399 kts
2026-04-20 14:53 46.62080 30.45232 18911 ft 403 kts 11°
2026-04-20 14:53 46.64806 30.46287 19478 ft 407 kts 11°
2026-04-20 14:53 46.67555 30.47367 20007 ft 412 kts 11°
2026-04-20 14:54 46.70344 30.48453 20592 ft 416 kts 10°
2026-04-20 14:54 46.73140 30.49525 21161 ft 419 kts 10°
2026-04-20 14:54 46.75970 30.50598 21711 ft 422 kts
2026-04-20 14:54 46.78829 30.51673 22258 ft 425 kts
2026-04-20 14:55 46.81714 30.52756 22799 ft 429 kts
2026-04-20 14:55 46.84622 30.53846 23326 ft 432 kts
2026-04-20 14:55 46.87546 30.54944 23776 ft 435 kts
2026-04-20 14:55 46.90490 30.56052 24209 ft 438 kts
2026-04-20 14:56 46.93454 30.57169 24647 ft 441 kts
2026-04-20 14:56 46.96432 30.58292 25077 ft 443 kts
2026-04-20 14:56 46.99418 30.59419 25487 ft 446 kts
2026-04-20 14:56 47.02444 30.60558 25857 ft 449 kts
2026-04-20 14:57 47.05499 30.61701 25860 ft 456 kts
2026-04-20 14:57 47.08576 30.62854 25875 ft 456 kts
2026-04-20 14:57 47.11643 30.64008 25870 ft 452 kts
2026-04-20 14:57 47.14645 30.65141 25867 ft 451 kts
2026-04-20 14:58 47.17682 30.66286 25876 ft 452 kts
2026-04-20 14:58 47.20772 30.67451 25879 ft 453 kts
2026-04-20 14:58 47.23822 30.68602 25887 ft 453 kts
2026-04-20 14:58 47.26840 30.69743 25883 ft 454 kts
2026-04-20 14:59 47.29899 30.70902 25882 ft 454 kts
2026-04-20 14:59 47.32956 30.72061 25880 ft 453 kts
2026-04-20 14:59 47.36012 30.73222 25887 ft 453 kts
2026-04-20 14:59 47.39059 30.74380 25890 ft 452 kts
2026-04-20 15:00 47.42102 30.75538 25884 ft 451 kts
2026-04-20 15:00 47.45145 30.76676 25887 ft 450 kts
2026-04-20 15:00 47.48194 30.77756 25901 ft 449 kts
2026-04-20 15:00 47.51233 30.78806 25897 ft 449 kts
2026-04-20 15:01 47.54270 30.79849 25894 ft 448 kts
2026-04-20 15:01 47.57309 30.80897 25902 ft 448 kts
2026-04-20 15:01 47.60343 30.81950 25886 ft 448 kts
2026-04-20 15:01 47.63376 30.83009 25899 ft 447 kts
2026-04-20 15:02 47.66403 30.84071 25910 ft 447 kts
2026-04-20 15:02 47.69433 30.85136 25913 ft 447 kts
2026-04-20 15:02 47.72460 30.86203 25920 ft 447 kts
2026-04-20 15:02 47.75450 30.87257 25918 ft 447 kts
2026-04-20 15:03 47.78479 30.88326 25916 ft 447 kts
2026-04-20 15:03 47.81515 30.89400 25922 ft 447 kts
2026-04-20 15:03 47.84543 30.90471 25923 ft 447 kts
2026-04-20 15:03 47.87569 30.91544 25926 ft 448 kts
2026-04-20 15:04 47.90604 30.92620 25929 ft 448 kts
2026-04-20 15:04 47.93629 30.93695 25930 ft 448 kts
2026-04-20 15:04 47.96669 30.94776 25934 ft 448 kts
2026-04-20 15:04 47.99701 30.95855 25938 ft 448 kts
2026-04-20 15:05 48.02734 30.96936 25937 ft 448 kts
2026-04-20 15:05 48.05778 30.97948 25945 ft 446 kts
2026-04-20 15:05 48.08825 30.98743 25945 ft 445 kts
2026-04-20 15:05 48.11887 30.99431 25947 ft 444 kts
2026-04-20 15:06 48.14944 31.00083 25953 ft 444 kts
2026-04-20 15:06 48.18009 31.00739 25955 ft 445 kts
2026-04-20 15:06 48.21073 31.01411 25959 ft 445 kts
2026-04-20 15:06 48.24100 31.02090 25962 ft 445 kts
2026-04-20 15:07 48.27163 31.02790 25963 ft 446 kts
2026-04-20 15:07 48.30227 31.03499 25964 ft 446 kts
2026-04-20 15:07 48.33299 31.04215 25970 ft 446 kts
2026-04-20 15:07 48.36365 31.04930 25971 ft 447 kts
2026-04-20 15:08 48.39439 31.05649 25975 ft 447 kts
2026-04-20 15:08 48.42511 31.06368 25974 ft 447 kts
2026-04-20 15:08 48.45585 31.07088 25973 ft 447 kts
2026-04-20 15:08 48.48658 31.07809 25973 ft 447 kts
2026-04-20 15:09 48.51731 31.08529 25980 ft 447 kts
2026-04-20 15:09 48.54808 31.09252 25979 ft 446 kts
2026-04-20 15:09 48.57877 31.09973 25988 ft 446 kts
2026-04-20 15:09 48.60945 31.10695 25987 ft 446 kts
2026-04-20 15:10 48.64016 31.11419 25986 ft 446 kts
2026-04-20 15:10 48.67084 31.12143 25989 ft 446 kts
2026-04-20 15:10 48.70155 31.12868 25996 ft 446 kts
2026-04-20 15:10 48.73215 31.13592 25993 ft 446 kts
2026-04-20 15:11 48.76246 31.14309 25998 ft 446 kts
2026-04-20 15:11 48.79314 31.15037 26000 ft 446 kts
2026-04-20 15:11 48.82384 31.15766 26000 ft 446 kts
2026-04-20 15:11 48.85437 31.16492 25997 ft 445 kts
2026-04-20 15:12 48.88503 31.17222 25998 ft 445 kts
2026-04-20 15:12 48.91560 31.17950 25995 ft 445 kts
2026-04-20 15:12 48.94613 31.18679 26014 ft 445 kts
2026-04-20 15:12 48.97677 31.19410 25994 ft 445 kts
2026-04-20 15:13 49.00736 31.20142 25996 ft 444 kts
2026-04-20 15:13 49.03784 31.20874 26005 ft 444 kts
2026-04-20 15:13 49.06836 31.21749 26010 ft 446 kts
2026-04-20 15:13 49.09871 31.22771 26008 ft 446 kts
2026-04-20 15:14 49.12893 31.23843 26006 ft 446 kts
2026-04-20 15:14 49.15921 31.24921 26005 ft 446 kts
2026-04-20 15:14 49.18932 31.25978 26005 ft 445 kts
2026-04-20 15:14 49.21920 31.27012 26012 ft 445 kts
2026-04-20 15:15 49.24935 31.28044 26011 ft 444 kts
2026-04-20 15:15 49.27960 31.29077 26019 ft 444 kts
2026-04-20 15:15 49.30972 31.30106 26012 ft 444 kts
2026-04-20 15:15 49.33998 31.31142 26014 ft 445 kts
2026-04-20 15:16 49.37020 31.32168 26012 ft 444 kts
2026-04-20 15:16 49.40042 31.33154 26011 ft 444 kts
2026-04-20 15:16 49.43057 31.34121 26027 ft 443 kts
2026-04-20 15:16 49.46087 31.35089 26020 ft 443 kts
2026-04-20 15:17 49.48086 31.35732 26008 ft 440 kts
2026-04-20 15:17 49.52037 31.37013 26012 ft 431 kts
2026-04-20 15:17 49.53978 31.37643 26007 ft 430 kts
2026-04-20 15:17 49.56915 31.38595 26019 ft 431 kts
2026-04-20 15:18 49.59848 31.39545 25911 ft 432 kts
2026-04-20 15:18 49.62797 31.40505 25435 ft 429 kts
2026-04-20 15:18 49.65697 31.41455 24896 ft 423 kts
2026-04-20 15:18 49.68563 31.42394 24352 ft 418 kts
2026-04-20 15:19 49.71396 31.43321 23805 ft 414 kts
2026-04-20 15:19 49.74199 31.44176 23189 ft 405 kts 359°
2026-04-20 15:19 49.76935 31.44088 22628 ft 386 kts 345°
2026-04-20 15:19 49.79580 31.43549 22045 ft 382 kts 345°
2026-04-20 15:20 49.82215 31.43012 21510 ft 379 kts 345°
2026-04-20 15:20 49.84826 31.42501 20952 ft 377 kts 345°
2026-04-20 15:20 49.87387 31.42020 20085 ft 376 kts 346°
2026-04-20 15:20 49.90013 31.41479 18943 ft 374 kts 340°
2026-04-20 15:21 49.92337 31.40009 17806 ft 361 kts 321°
2026-04-20 15:21 49.94158 31.37492 16908 ft 345 kts 305°
2026-04-20 15:21 49.95456 31.34445 16074 ft 333 kts 293°
2026-04-20 15:21 49.96183 31.31071 15148 ft 328 kts 280°
2026-04-20 15:22 49.96544 31.27606 14479 ft 320 kts 278°
2026-04-20 15:22 49.96845 31.24221 13664 ft 316 kts 277°
2026-04-20 15:22 49.97152 31.20830 12607 ft 318 kts 278°
2026-04-20 15:22 49.97475 31.17423 11580 ft 320 kts 279°
2026-04-20 15:23 49.97801 31.14066 11163 ft 306 kts 279°
2026-04-20 15:23 49.98113 31.10871 10948 ft 288 kts 280°
2026-04-20 15:23 49.98403 31.07890 10837 ft 269 kts 280°
2026-04-20 15:23 49.98426 31.05091 10736 ft 255 kts 259°
2026-04-20 15:24 49.97736 31.02681 10654 ft 245 kts 238°
2026-04-20 15:24 49.96524 31.00815 10409 ft 249 kts 219°
2026-04-20 15:24 49.94960 30.99626 10148 ft 254 kts 197°
2026-04-20 15:24 49.93193 30.99313 9902 ft 256 kts 186°
2026-04-20 15:25 49.91406 30.99188 9626 ft 258 kts 185°
2026-04-20 15:25 49.89610 30.99073 9354 ft 258 kts 185°
2026-04-20 15:25 49.87892 30.98483 9066 ft 251 kts 212°
2026-04-20 15:25 49.86652 30.96721 8845 ft 239 kts 242°
2026-04-20 15:26 49.86068 30.94363 8589 ft 232 kts 264°
2026-04-20 15:26 49.86002 30.91874 8363 ft 234 kts 274°
2026-04-20 15:26 49.86218 30.89364 8081 ft 235 kts 293°
2026-04-20 15:26 49.87139 30.87348 7845 ft 229 kts 322°
2026-04-20 15:27 49.88534 30.86233 7618 ft 227 kts 346°
2026-04-20 15:27 49.90105 30.86041 7380 ft 226 kts
2026-04-20 15:27 49.91652 30.86147 7145 ft 225 kts
2026-04-20 15:27 49.93208 30.86290 6910 ft 224 kts
2026-04-20 15:28 49.94754 30.86430 6666 ft 222 kts
2026-04-20 15:28 49.96302 30.86555 6434 ft 221 kts
2026-04-20 15:28 49.97836 30.86671 6186 ft 220 kts
2026-04-20 15:28 49.99367 30.86783 5931 ft 219 kts
2026-04-20 15:29 50.00881 30.86894 5700 ft 217 kts
2026-04-20 15:29 50.02388 30.87002 5475 ft 216 kts
2026-04-20 15:29 50.03881 30.87108 5248 ft 215 kts
2026-04-20 15:29 50.05369 30.87214 5062 ft 213 kts
2026-04-20 15:30 50.06830 30.87375 4931 ft 208 kts
2026-04-20 15:30 50.08262 30.87719 4702 ft 209 kts 10°
2026-04-20 15:30 50.09700 30.88090 4464 ft 209 kts 10°
2026-04-20 15:30 50.11136 30.88453 4247 ft 209 kts
2026-04-20 15:31 50.12572 30.88811 4009 ft 209 kts
2026-04-20 15:31 50.14016 30.89037 3783 ft 209 kts
2026-04-20 15:31 50.15468 30.89145 3563 ft 209 kts
2026-04-20 15:31 50.16905 30.89243 3353 ft 205 kts
2026-04-20 15:32 50.18305 30.89344 3141 ft 197 kts
2026-04-20 15:32 50.19644 30.89443 2935 ft 189 kts
2026-04-20 15:32 50.20926 30.89538 2688 ft 184 kts
2026-04-20 15:32 50.22130 30.89626 2469 ft 164 kts
2026-04-20 15:33 50.23214 30.89706 2246 ft 146 kts
2026-04-20 15:33 50.24181 30.89778 2075 ft 136 kts
2026-04-20 15:33 50.25116 30.89847 1906 ft 134 kts
2026-04-20 15:33 50.26047 30.89916 1740 ft 135 kts
2026-04-20 15:34 50.26992 30.89986 1527 ft 134 kts
2026-04-20 15:34 50.27916 30.90055 1362 ft 134 kts
2026-04-20 15:34 50.28860 30.90125 1225 ft 137 kts
2026-04-20 15:34 50.29825 30.90205 1049 ft 141 kts
2026-04-20 15:35 50.30813 30.90257 839 ft 142 kts
2026-04-20 15:35 50.31793 30.90335 597 ft 138 kts
2026-04-20 15:35 50.32733 30.90400 434 ft 131 kts
2026-04-20 15:35 50.33536 30.90462 416 ft 95 kts
2026-04-20 15:36 50.34045 30.90500 414 ft 46 kts
2026-04-20 15:36 50.34253 30.90489 415 ft 26 kts 351°
2026-04-20 15:36 50.34348 30.90440 419 ft 9 kts 336°
2026-04-20 15:36 50.34402 30.90402 416 ft 8 kts 335°
2026-04-20 15:37 50.34457 30.90358 413 ft 9 kts 330°
2026-04-20 15:37 50.34520 30.90306 408 ft 11 kts 333°
2026-04-20 15:37 50.34597 30.90245 415 ft 13 kts 336°
2026-04-20 15:37 50.34694 30.90223 410 ft 15 kts
2026-04-20 15:38 50.34800 30.90231 413 ft 16 kts
2026-04-20 15:38 50.34880 30.90196 409 ft 12 kts 309°
2026-04-20 15:38 50.34894 30.90066 407 ft 10 kts 285°
2026-04-20 15:38 50.34949 30.90000 414 ft 11 kts 356°
2026-04-20 15:39 50.35005 30.90003 414 ft 1 kts
2026-04-20 15:39 50.35011 30.90010 414 ft 1 kts 47°
2026-04-20 15:39 50.35012 30.90020 414 ft 1 kts 82°
2026-04-20 15:39 50.35011 30.90047 412 ft 3 kts 92°
2026-04-20 15:40 50.35010 30.90085 414 ft 4 kts 92°
2026-04-20 15:40 50.35009 30.90129 414 ft 2 kts 92°